{"data":{"norad_id":48572,"epoch":"2026-05-24T17:55:23.850912Z","epoch_age_seconds":100906,"freshness":"FRESH","line1":"1 48572U 21041V   26144.74680383 -.00000092  00000+0  87937-5 0  9990","line2":"2 48572  53.1612 155.1733 0001515  96.7169 263.4005 15.31704305276601","mean_motion":15.31704305,"eccentricity":0.0001515,"inclination_deg":53.1612,"raan_deg":155.1733,"arg_perigee_deg":96.7169,"mean_anomaly_deg":263.4005,"bstar":8.7937e-6,"rev_number":27660,"period_min":94.012923728121,"perigee_km":469.68955935413,"apogee_km":471.7647651953,"semimajor_km":6848.8641622747,"source":"CELESTRAK","updated_at":"2026-05-25T13:38:16.727406Z"}}